Location: Complexul Astronomic Baia Mare
(47.6577°N, 23.5639°E)
Time: 05:45:58
(UTC+03:00)

ISS - Pass Details

Date: 10 March 2017
Orbit: 399 x 409 km, 51.6° (Epoch: 30 March)

Event Time Altitude Azimuth Distance (km) Brightness Sun altitude
Exits shadow 05:31:43 26° 281° (W) 850 -2.8 -13.8°
Maximum altitude 05:33:16 51° 346° (NNW) 525 -3.4 -13.5°
Drops below altitude 10° 05:36:32 10° 64° (ENE) 1,482 0.3 -13.0°
Sets 05:38:40 0° 69° (ENE) 2,345 1.8 -12.6°
